Regional Weather Roundup
Issued by NWS

Home | Current Version | Previous Version | Text Only | Print | Product List | Glossary On
Versions: 1 2 3 4 5 6 7 8 9 10 11 12 13 14 15 16 17 18 19 20 21 22 23 24 25 26 27 28 29 30 31 32 33 34 35 36 37 38 39 40 41 42 43 44 45 46 47 48 49 50
000
ASUS43 KLMK 212110
RWRKY
KENTUCKY REGIONAL WEATHER ROUNDUP
NATIONAL WEATHER SERVICE LOUISVILLE KY
500 PM EDT SAT APR 21 2018

NOTE "FAIR" INDICATES FEW OR NO CLOUDS BELOW 12,000 FEET
WITH NO SIGNIFICANT WEATHER AND/OR OBSTRUCTIONS TO VISIBILITY.

KYZ001>023-026-027-061>063-070>075-212200-
WESTERN AND SOUTH CENTRAL KENTUCKY

CITY           SKY/WX    TMP DP  RH WIND       PRES   REMARKS
PADUCAH        FAIR      73  34  23 E13       30.13F
HENDERSON      FAIR      70  34  26 NE10      30.21F
OWENSBORO      FAIR      70  33  25 NE10      30.22F
HOPKINSVILLE   FAIR      72  36  26 NE14      30.18F
BOWLING GREEN  FAIR      71  35  26 NE3       30.22F
GLASGOW        FAIR      72  34  25 CALM      30.23S
$$

KYZ024-025-028>034-038-045-046-053-212200-
NORTH CENTRAL KENTUCKY

CITY           SKY/WX    TMP DP  RH WIND       PRES   REMARKS
LOUISVILLE/SDF PTSUNNY   70  29  21 E7        30.25F
LOUISVILLE/LOU FAIR      68  29  23 E7        30.26F
FORT KNOX      FAIR      70  30  23 NE10      30.24F
$$

KYZ035>037-039>044-047>052-055>060-089>105-212200-
NORTHEAST KENTUCKY

CITY           SKY/WX    TMP DP  RH WIND       PRES   REMARKS
LEXINGTON      FAIR      66  32  28 NE9       30.29F
COVINGTON      CLOUDY    62  19  19 NE8       30.31F
FRANKFORT      FAIR      68  26  20 SE8       30.27F
$$

KYZ054-064>069-076>088-106>120-212200-
SOUTHEAST KENTUCKY

CITY           SKY/WX    TMP DP  RH WIND       PRES   REMARKS
JACKSON        FAIR      70  22  16 CALM      30.26F
LONDON         FAIR      72  30  21 VRB5      30.25F
SOMERSET       FAIR      70  34  26 MISG      30.26F
MIDDLESBORO    FAIR      74  32  21 E5        30.24F
MONTICELLO     FAIR      72  38  29 N9G22     30.25F
$$





USA.gov is the U.S. government's official web portal to all federal, state and local government web resources and services.